Weather History for LJPZ - December, 2013

Change the Weather History Date:

Saturday, December 21, 2013

  Actual Average (LIVT) Record (LIVT)
Temperature  
Mean Temperature 50 °F -  
Max Temperature 53 °F 45 °F 56 °F (2014)
Min Temperature 46 °F 39 °F 33 °F (2001)
Degree Days  
Heating Degree Days 16    
Moisture  
Dew Point 48 °F    
Average Humidity 94    
Maximum Humidity 100    
Minimum Humidity 82    
Precipitation  
Precipitation 0.00 in - - ()
Sea Level Pressure  
Sea Level Pressure 30.56 in    
Wind  
Wind Speed 2 mph ()    
Max Wind Speed 7 mph    
Max Gust Speed -    
Visibility 3.6 miles    
Events Rain    
Averages and records for this station are not official NWS values.
T = Trace of Precipitation, MM = Missing Value Source: Averaged Metar Reports

Daily Weather History Graph

Daily Weather History Graph

Search for Another Location

Airport or City:

Trip Planner

Search our weather history database for the weather conditions in past years. The results will help you decide how hot, cold, wet, or windy it might be!

Date:

Astronomy

Dec. 21, 2013 Rise Set
Actual Time 7:42 AM CET 4:24 PM CET
Civil Twilight 7:08 AM CET 4:59 PM CET
Nautical Twilight 6:30 AM CET 5:36 PM CET
Astronomical Twilight 5:54 AM CET 6:12 PM CET
Moon 8:35 PM CET (12/21) 9:50 AM CET (12/21)
Length of Visible Light 9h 50m
Length of Day
8h 42m
Waning Gibbous, 86% of the Moon is Illuminated
Dec 21
Waning Gibbous
Dec 25
Last Quarter
Jan 1
New
Jan 8
First Quarter
Jan 16
Full

Hourly Weather History & Observations

Time (CET) Temp. Windchill Dew Point Humidity Pressure Visibility Wind Dir Wind Speed Gust Speed Precip Events Conditions
12:00 AM 48.2 °F - 46.4 °F 93% 30.51 in 5.6 mi Variable 1.2 mph - N/A   Mostly Cloudy
12:30 AM 48.2 °F - 48.2 °F 100% 30.51 in 5.6 mi Calm Calm - N/A Rain Light Rain Showers
1:00 AM 48.2 °F - 48.2 °F 100% 30.51 in 4.3 mi Variable 2.3 mph - N/A Rain Light Rain Showers
1:30 AM 48.2 °F - 48.2 °F 100% 30.51 in 3.7 mi Variable 3.5 mph - N/A   Mostly Cloudy
2:00 AM 48.2 °F - 48.2 °F 100% 30.51 in 5.6 mi ESE 3.5 mph - N/A   Mostly Cloudy
2:30 AM 48.2 °F - 48.2 °F 100% 30.51 in 3.7 mi Variable 1.2 mph - N/A   Overcast
3:00 AM 48.2 °F - 48.2 °F 100% 30.54 in 3.7 mi Variable 3.5 mph - N/A   Mostly Cloudy
3:30 AM 48.2 °F - 48.2 °F 100% 30.54 in 3.7 mi Calm Calm - N/A   Mostly Cloudy
4:00 AM 48.2 °F - 48.2 °F 100% 30.54 in 3.1 mi Variable 2.3 mph - N/A   Mostly Cloudy
4:30 AM 48.2 °F - 48.2 °F 100% 30.54 in 3.7 mi Variable 1.2 mph - N/A   Overcast
5:00 AM 48.2 °F - 48.2 °F 100% 30.54 in 3.7 mi ESE 2.3 mph - N/A   Mostly Cloudy
5:30 AM 48.2 °F - 48.2 °F 100% 30.54 in 3.1 mi ESE 3.5 mph - N/A Rain Light Rain Showers
6:00 AM 48.2 °F - 46.4 °F 93% 30.54 in 3.1 mi ESE 4.6 mph - N/A   Mostly Cloudy
6:30 AM 48.2 °F - 46.4 °F 93% 30.54 in 3.7 mi SE 6.9 mph - N/A   Mostly Cloudy
7:00 AM 48.2 °F - 46.4 °F 93% 30.57 in 3.1 mi Calm Calm - N/A   Mostly Cloudy
7:30 AM 48.2 °F - 46.4 °F 93% 30.57 in 2.5 mi SSE 1.2 mph - N/A   Mostly Cloudy
8:00 AM 46.4 °F - 46.4 °F 100% 30.57 in 1.9 mi Variable 1.2 mph - N/A   Mostly Cloudy
8:30 AM 46.4 °F - 46.4 °F 100% 30.57 in 0.9 mi ESE 2.3 mph - N/A   Mostly Cloudy
9:00 AM 46.4 °F 45.2 °F 46.4 °F 100% 30.60 in 1.2 mi East 3.5 mph - N/A   Mostly Cloudy
9:30 AM 48.2 °F - 48.2 °F 100% 30.60 in 3.1 mi Variable 2.3 mph - N/A   Overcast
10:00 AM 48.2 °F - 46.4 °F 93% 30.60 in 2.2 mi SE 2.3 mph - N/A   Overcast
10:30 AM 48.2 °F - 48.2 °F 100% 30.60 in 1.9 mi ESE 5.8 mph - N/A   Overcast
11:00 AM 50.0 °F - 48.2 °F 94% 30.60 in 2.5 mi ESE 6.9 mph - N/A   Overcast
11:30 AM 50.0 °F - 48.2 °F 94% 30.60 in 2.5 mi ESE 5.8 mph - N/A Rain Light Rain
12:00 PM 51.8 °F - 50.0 °F 94% 30.60 in 3.7 mi SE 4.6 mph - N/A   Overcast
12:30 PM 51.8 °F - 50.0 °F 94% 30.57 in 3.7 mi ESE 4.6 mph - N/A   Mostly Cloudy
1:00 PM 53.6 °F - 50.0 °F 88% 30.57 in 3.1 mi Variable 2.3 mph - N/A   Mostly Cloudy
1:30 PM 53.6 °F - 48.2 °F 82% 30.57 in 3.7 mi South 3.5 mph - N/A   Mostly Cloudy
2:00 PM 53.6 °F - 48.2 °F 82% 30.57 in 4.3 mi Variable 2.3 mph - N/A   Mostly Cloudy
2:30 PM 53.6 °F - 48.2 °F 82% 30.57 in 4.3 mi SSW 3.5 mph - N/A   Mostly Cloudy
3:00 PM 51.8 °F - 48.2 °F 88% 30.57 in 4.3 mi Variable 2.3 mph - N/A   Mostly Cloudy
3:30 PM 51.8 °F - 48.2 °F 88% 30.57 in 4.3 mi Variable 2.3 mph - N/A   Mostly Cloudy
4:00 PM 51.8 °F - 48.2 °F 88% 30.57 in 4.3 mi Variable 1.2 mph - N/A   Mostly Cloudy
4:30 PM 51.8 °F - 48.2 °F 88% 30.57 in 4.3 mi Variable 1.2 mph - N/A   Mostly Cloudy
5:00 PM 51.8 °F - 50.0 °F 94% 30.57 in 3.7 mi ESE 3.5 mph - N/A   Mostly Cloudy
5:30 PM 50.0 °F - 48.2 °F 94% 30.57 in 3.7 mi Variable 1.2 mph - N/A   Mostly Cloudy
6:00 PM 50.0 °F - 48.2 °F 94% 30.57 in 3.1 mi ESE 2.3 mph - N/A   Mostly Cloudy
6:30 PM 50.0 °F - 48.2 °F 94% 30.57 in 3.1 mi ESE 4.6 mph - N/A   Mostly Cloudy
7:00 PM 50.0 °F - 48.2 °F 94% 30.57 in 3.1 mi SSE 4.6 mph - N/A   Mostly Cloudy
7:30 PM 51.8 °F - 48.2 °F 88% 30.57 in 4.3 mi SSE 3.5 mph - N/A   Mostly Cloudy
8:00 PM 51.8 °F - 48.2 °F 88% 30.57 in 5.0 mi East 3.5 mph - N/A   Mostly Cloudy
8:30 PM 50.0 °F - 48.2 °F 94% 30.57 in 3.7 mi South 2.3 mph - N/A   Mostly Cloudy
9:00 PM 51.8 °F - 48.2 °F 88% 30.57 in 5.0 mi Variable 2.3 mph - N/A   Mostly Cloudy
9:30 PM 51.8 °F - 48.2 °F 88% 30.57 in 5.0 mi ESE 3.5 mph - N/A   Mostly Cloudy
10:00 PM 50.0 °F - 48.2 °F 94% 30.57 in 5.0 mi SE 3.5 mph - N/A   Mostly Cloudy
10:30 PM 50.0 °F - 48.2 °F 94% 30.57 in 3.7 mi Variable 3.5 mph - N/A   Mostly Cloudy
11:00 PM 50.0 °F - 48.2 °F 94% 30.57 in 3.7 mi ESE 4.6 mph - N/A   Mostly Cloudy
11:30 PM 50.0 °F - 48.2 °F 94% 30.57 in 3.7 mi ESE 4.6 mph - N/A   Mostly Cloudy